Time,TemperatureF,DewpointF,PressureIn,WindDirection,WindDirectionDegrees,WindSpeedMPH,WindSpeedGustMPH,Humidity,HourlyPrecipIn,Conditions,Clouds,dailyrainin,SoftwareType,DateUTC
2013-09-24 00:05:00,54.4,44.0,30.00,NNW,330,0.0,4.0,67,0.00,,,0.00,weatherlink.com 1.10,2013-09-24 04:05:00,
2013-09-24 00:20:00,54.0,44.0,29.99,NNE,13,2.0,4.0,68,0.00,,,0.00,weatherlink.com 1.10,2013-09-24 04:20:00,
2013-09-24 00:35:00,54.2,43.0,29.99,NNW,329,2.0,3.0,67,0.00,,,0.00,weatherlink.com 1.10,2013-09-24 04:35:00,
2013-09-24 00:50:00,54.2,43.0,30.00,SE,136,1.0,5.0,67,0.00,,,0.00,weatherlink.com 1.10,2013-09-24 04:50:00,
2013-09-24 01:05:00,54.1,44.0,30.00,East,98,2.0,3.0,68,0.00,,,0.00,weatherlink.com 1.10,2013-09-24 05:05:00,
2013-09-24 01:20:00,53.9,44.0,30.00,ESE,108,0.0,2.0,69,0.00,,,0.00,weatherlink.com 1.10,2013-09-24 05:20:00,
2013-09-24 01:35:00,53.7,44.0,30.00,NE,50,0.0,4.0,70,0.00,,,0.00,weatherlink.com 1.10,2013-09-24 05:35:00,
2013-09-24 01:50:00,53.4,44.0,30.00,WNW,284,0.0,3.0,70,0.00,,,0.00,weatherlink.com 1.10,2013-09-24 05:50:00,
2013-09-24 02:05:00,53.2,43.0,30.00,East,96,6.0,6.0,69,0.00,,,0.00,weatherlink.com 1.10,2013-09-24 06:05:00,
2013-09-24 02:20:00,52.8,43.0,30.00,ESE,108,6.0,8.0,70,0.00,,,0.00,weatherlink.com 1.10,2013-09-24 06:20:00,
2013-09-24 02:35:00,52.5,43.0,30.00,ESE,123,4.0,8.0,70,0.00,,,0.00,weatherlink.com 1.10,2013-09-24 06:35:00,
2013-09-24 02:50:00,52.2,43.0,30.00,East,81,8.0,9.0,70,0.00,,,0.00,weatherlink.com 1.10,2013-09-24 06:50:00,
2013-09-24 03:05:00,52.0,42.0,30.00,SE,142,4.0,12.0,69,0.00,,,0.00,weatherlink.com 1.10,2013-09-24 07:05:00,
2013-09-24 03:20:00,51.8,42.0,30.00,ESE,116,2.0,6.0,69,0.00,,,0.00,weatherlink.com 1.10,2013-09-24 07:20:00,
2013-09-24 03:35:00,51.6,42.0,29.99,ENE,63,8.0,9.0,69,0.00,,,0.00,weatherlink.com 1.10,2013-09-24 07:35:00,
2013-09-24 03:50:00,51.3,41.0,29.99,SE,132,1.0,8.0,69,0.00,,,0.00,weatherlink.com 1.10,2013-09-24 07:50:00,
2013-09-24 04:05:00,51.1,41.0,29.99,ENE,65,1.0,7.0,69,0.00,,,0.00,weatherlink.com 1.10,2013-09-24 08:05:00,
2013-09-24 04:20:00,50.8,41.0,30.00,SSE,158,1.0,4.0,70,0.00,,,0.00,weatherlink.com 1.10,2013-09-24 08:20:00,
2013-09-24 04:35:00,50.6,41.0,30.00,SSE,149,1.0,6.0,70,0.00,,,0.00,weatherlink.com 1.10,2013-09-24 08:35:00,
2013-09-24 04:50:00,50.5,41.0,30.00,ENE,71,1.0,5.0,71,0.00,,,0.00,weatherlink.com 1.10,2013-09-24 08:50:00,
2013-09-24 05:05:00,50.3,42.0,30.00,ESE,108,0.0,4.0,72,0.00,,,0.00,weatherlink.com 1.10,2013-09-24 09:05:00,
2013-09-24 05:20:00,50.2,42.0,30.00,SE,139,0.0,2.0,74,0.00,,,0.00,weatherlink.com 1.10,2013-09-24 09:20:00,
2013-09-24 05:35:00,50.0,42.0,30.00,East,86,0.0,2.0,75,0.00,,,0.00,weatherlink.com 1.10,2013-09-24 09:35:00,
2013-09-24 05:51:00,49.9,43.0,30.00,WSW,239,2.0,3.0,76,0.00,,,0.00,weatherlink.com 1.10,2013-09-24 09:51:00,
2013-09-24 06:06:00,49.7,42.0,30.00,NE,40,1.0,5.0,76,0.00,,,0.00,weatherlink.com 1.10,2013-09-24 10:06:00,
2013-09-24 06:21:00,49.5,42.0,30.00,WNW,290,1.0,2.0,76,0.00,,,0.00,weatherlink.com 1.10,2013-09-24 10:21:00,
2013-09-24 06:36:00,49.3,42.0,30.00,WNW,286,2.0,4.0,76,0.00,,,0.00,weatherlink.com 1.10,2013-09-24 10:36:00,
2013-09-24 06:51:00,49.1,42.0,30.00,ENE,68,1.0,3.0,76,0.00,,,0.00,weatherlink.com 1.10,2013-09-24 10:51:00,
2013-09-24 07:06:00,49.1,42.0,30.00,NW,321,1.0,3.0,76,0.00,,,0.00,weatherlink.com 1.10,2013-09-24 11:06:00,
2013-09-24 07:21:00,49.1,42.0,30.00,NE,45,0.0,5.0,75,0.00,,,0.00,weatherlink.com 1.10,2013-09-24 11:21:00,
2013-09-24 07:36:00,49.8,42.0,30.00,SE,131,0.0,2.0,74,0.00,,,0.00,weatherlink.com 1.10,2013-09-24 11:36:00,
2013-09-24 07:51:00,50.7,42.0,30.00,SW,225,0.0,3.0,72,0.00,,,0.00,weatherlink.com 1.10,2013-09-24 11:51:00,
2013-09-24 08:06:00,51.6,42.0,30.00,NNW,333,1.0,2.0,71,0.00,,,0.00,weatherlink.com 1.10,2013-09-24 12:06:00,
2013-09-24 08:21:00,51.8,42.0,30.00,NE,39,0.0,3.0,69,0.00,,,0.00,weatherlink.com 1.10,2013-09-24 12:21:00,
2013-09-24 08:36:00,52.4,42.0,29.99,ENE,62,3.0,3.0,69,0.00,,,0.00,weatherlink.com 1.10,2013-09-24 12:36:00,
2013-09-24 08:51:00,53.5,43.0,29.98,ESE,121,1.0,4.0,67,0.00,,,0.00,weatherlink.com 1.10,2013-09-24 12:51:00,
2013-09-24 09:06:00,53.4,43.0,29.98,WSW,245,1.0,4.0,67,0.00,,,0.00,weatherlink.com 1.10,2013-09-24 13:06:00,
2013-09-24 09:36:00,54.5,42.0,29.98,NW,311,2.0,4.0,64,0.00,,,0.00,weatherlink.com 1.10,2013-09-24 13:36:00,
2013-09-24 09:51:00,54.8,41.0,29.97,WSW,243,3.0,5.0,61,0.00,,,0.00,weatherlink.com 1.10,2013-09-24 13:51:00,
2013-09-24 10:06:00,55.5,41.0,29.97,West,274,3.0,5.0,59,0.00,,,0.00,weatherlink.com 1.10,2013-09-24 14:06:00,
2013-09-24 10:21:00,55.9,41.0,29.97,NNW,329,1.0,5.0,58,0.00,,,0.00,weatherlink.com 1.10,2013-09-24 14:21:00,
2013-09-24 10:36:00,57.4,42.0,29.96,WSW,255,1.0,3.0,57,0.00,,,0.00,weatherlink.com 1.10,2013-09-24 14:36:00,
2013-09-24 10:51:00,57.9,42.0,29.95,WSW,256,3.0,5.0,55,0.00,,,0.00,weatherlink.com 1.10,2013-09-24 14:51:00,
2013-09-24 11:06:00,58.4,41.0,29.95,West,269,1.0,5.0,52,0.00,,,0.00,weatherlink.com 1.10,2013-09-24 15:06:00,
2013-09-24 11:21:00,58.8,41.0,29.94,West,271,3.0,8.0,53,0.00,,,0.00,weatherlink.com 1.10,2013-09-24 15:21:00,
2013-09-24 11:36:00,59.2,41.0,29.94,SW,215,2.0,8.0,52,0.00,,,0.00,weatherlink.com 1.10,2013-09-24 15:36:00,
2013-09-24 11:51:00,60.0,43.0,29.93,SW,229,4.0,6.0,53,0.00,,,0.00,weatherlink.com 1.10,2013-09-24 15:51:00,
2013-09-24 12:06:00,60.9,42.0,29.93,WSW,248,6.0,6.0,51,0.00,,,0.00,weatherlink.com 1.10,2013-09-24 16:06:00,
2013-09-24 12:21:00,61.3,43.0,29.92,WSW,256,3.0,8.0,52,0.00,,,0.00,weatherlink.com 1.10,2013-09-24 16:21:00,
2013-09-24 12:36:00,62.1,44.0,29.92,WSW,248,4.0,8.0,51,0.00,,,0.00,weatherlink.com 1.10,2013-09-24 16:36:00,
2013-09-24 12:51:00,63.9,43.0,29.91,West,264,4.0,6.0,47,0.00,,,0.00,weatherlink.com 1.10,2013-09-24 16:51:00,
2013-09-24 13:06:00,65.5,43.0,29.90,WNW,284,0.0,7.0,45,0.00,,,0.00,weatherlink.com 1.10,2013-09-24 17:06:00,
2013-09-24 13:21:00,66.2,43.0,29.89,WSW,256,3.0,7.0,44,0.00,,,0.00,weatherlink.com 1.10,2013-09-24 17:21:00,
2013-09-24 13:36:00,66.4,43.0,29.88,WSW,250,5.0,10.0,43,0.00,,,0.00,weatherlink.com 1.10,2013-09-24 17:36:00,
2013-09-24 13:51:00,67.3,43.0,29.87,WSW,242,0.0,4.0,41,0.00,,,0.00,weatherlink.com 1.10,2013-09-24 17:51:00,
2013-09-24 14:06:00,68.4,41.0,29.87,NE,43,1.0,7.0,37,0.00,,,0.00,weatherlink.com 1.10,2013-09-24 18:06:00,
2013-09-24 14:21:00,69.5,43.0,29.86,West,266,2.0,4.0,38,0.00,,,0.00,weatherlink.com 1.10,2013-09-24 18:21:00,
2013-09-24 14:36:00,69.9,41.0,29.85,North,352,1.0,9.0,35,0.00,,,0.00,weatherlink.com 1.10,2013-09-24 18:36:00,
2013-09-24 14:51:00,70.8,42.0,29.85,NE,49,3.0,8.0,35,0.00,,,0.00,weatherlink.com 1.10,2013-09-24 18:51:00,
2013-09-24 15:07:00,71.7,43.0,29.84,WSW,248,4.0,5.0,35,0.00,,,0.00,weatherlink.com 1.10,2013-09-24 19:07:00,
2013-09-24 15:22:00,72.0,43.0,29.84,WSW,248,4.0,8.0,35,0.00,,,0.00,weatherlink.com 1.10,2013-09-24 19:22:00,
2013-09-24 15:37:00,72.7,43.0,29.84,NW,305,4.0,6.0,34,0.00,,,0.00,weatherlink.com 1.10,2013-09-24 19:37:00,
2013-09-24 15:52:00,73.2,43.0,29.84,SW,231,2.0,5.0,34,0.00,,,0.00,weatherlink.com 1.10,2013-09-24 19:52:00,
2013-09-24 16:07:00,73.4,43.0,29.83,NW,310,1.0,11.0,33,0.00,,,0.00,weatherlink.com 1.10,2013-09-24 20:07:00,
2013-09-24 16:22:00,73.3,42.0,29.83,WSW,256,1.0,7.0,33,0.00,,,0.00,weatherlink.com 1.10,2013-09-24 20:22:00,
2013-09-24 16:37:00,73.0,41.0,29.83,SW,215,2.0,7.0,32,0.00,,,0.00,weatherlink.com 1.10,2013-09-24 20:37:00,
2013-09-24 16:52:00,73.2,42.0,29.83,WNW,295,2.0,5.0,33,0.00,,,0.00,weatherlink.com 1.10,2013-09-24 20:52:00,
2013-09-24 17:07:00,72.9,42.0,29.83,WSW,252,2.0,7.0,33,0.00,,,0.00,weatherlink.com 1.10,2013-09-24 21:07:00,
2013-09-24 17:22:00,73.1,42.0,29.83,WNW,293,2.0,6.0,33,0.00,,,0.00,weatherlink.com 1.10,2013-09-24 21:22:00,
2013-09-24 17:37:00,72.7,41.0,29.82,West,281,1.0,8.0,32,0.00,,,0.00,weatherlink.com 1.10,2013-09-24 21:37:00,
2013-09-24 17:52:00,72.7,42.0,29.82,WNW,302,1.0,8.0,33,0.00,,,0.00,weatherlink.com 1.10,2013-09-24 21:52:00,
2013-09-24 18:07:00,72.4,42.0,29.83,NE,53,1.0,6.0,34,0.00,,,0.00,weatherlink.com 1.10,2013-09-24 22:07:00,
2013-09-24 18:22:00,71.8,41.0,29.83,West,259,1.0,5.0,33,0.00,,,0.00,weatherlink.com 1.10,2013-09-24 22:22:00,
2013-09-24 18:37:00,71.5,42.0,29.83,SW,224,1.0,7.0,34,0.00,,,0.00,weatherlink.com 1.10,2013-09-24 22:37:00,
2013-09-24 18:52:00,71.0,43.0,29.83,NE,46,1.0,6.0,36,0.00,,,0.00,weatherlink.com 1.10,2013-09-24 22:52:00,
2013-09-24 19:07:00,70.4,43.0,29.83,WSW,248,3.0,6.0,37,0.00,,,0.00,weatherlink.com 1.10,2013-09-24 23:07:00,
2013-09-24 19:22:00,69.9,43.0,29.83,WNW,287,3.0,6.0,38,0.00,,,0.00,weatherlink.com 1.10,2013-09-24 23:22:00,
2013-09-24 19:37:00,69.5,43.0,29.83,West,264,1.0,5.0,39,0.00,,,0.00,weatherlink.com 1.10,2013-09-24 23:37:00,
2013-09-24 19:52:00,69.2,43.0,29.83,NE,47,2.0,6.0,39,0.00,,,0.00,weatherlink.com 1.10,2013-09-24 23:52:00,
2013-09-24 20:07:00,68.8,43.0,29.83,West,263,1.0,4.0,40,0.00,,,0.00,weatherlink.com 1.10,2013-09-25 00:07:00,
2013-09-24 20:22:00,68.5,43.0,29.84,West,281,5.0,5.0,40,0.00,,,0.00,weatherlink.com 1.10,2013-09-25 00:22:00,
2013-09-24 20:37:00,68.3,44.0,29.85,WSW,250,0.0,8.0,41,0.00,,,0.00,weatherlink.com 1.10,2013-09-25 00:37:00,
2013-09-24 20:52:00,67.7,44.0,29.85,WSW,249,4.0,4.0,42,0.00,,,0.00,weatherlink.com 1.10,2013-09-25 00:52:00,
2013-09-24 21:07:00,67.4,44.0,29.85,WSW,248,0.0,5.0,43,0.00,,,0.00,weatherlink.com 1.10,2013-09-25 01:07:00,
2013-09-24 21:22:00,67.2,44.0,29.85,NW,309,2.0,7.0,43,0.00,,,0.00,weatherlink.com 1.10,2013-09-25 01:22:00,
2013-09-24 21:37:00,66.8,44.0,29.86,West,270,2.0,9.0,44,0.00,,,0.00,weatherlink.com 1.10,2013-09-25 01:37:00,
2013-09-24 21:52:00,66.2,44.0,29.87,East,82,2.0,6.0,45,0.00,,,0.00,weatherlink.com 1.10,2013-09-25 01:52:00,
2013-09-24 22:07:00,65.7,44.0,29.87,West,264,0.0,8.0,46,0.00,,,0.00,weatherlink.com 1.10,2013-09-25 02:07:00,
2013-09-24 22:22:00,65.1,44.0,29.88,NW,307,0.0,7.0,47,0.00,,,0.00,weatherlink.com 1.10,2013-09-25 02:22:00,
2013-09-24 22:37:00,64.8,44.0,29.87,West,267,2.0,6.0,47,0.00,,,0.00,weatherlink.com 1.10,2013-09-25 02:37:00,
2013-09-24 22:52:00,64.4,44.0,29.88,NNW,347,4.0,5.0,48,0.00,,,0.00,weatherlink.com 1.10,2013-09-25 02:52:00,
2013-09-24 23:07:00,64.0,44.0,29.88,NE,41,3.0,7.0,48,0.00,,,0.00,weatherlink.com 1.10,2013-09-25 03:07:00,
2013-09-24 23:22:00,63.6,44.0,29.88,WSW,257,1.0,4.0,49,0.00,,,0.00,weatherlink.com 1.10,2013-09-25 03:22:00,
2013-09-24 23:37:00,63.3,44.0,29.88,SE,129,2.0,4.0,50,0.00,,,0.00,weatherlink.com 1.10,2013-09-25 03:37:00,
2013-09-24 23:52:00,62.9,44.0,29.88,ENE,58,1.0,3.0,51,0.00,,,0.00,weatherlink.com 1.10,2013-09-25 03:52:00,